TimeMST,TemperatureF,Dew PointF,Humidity,Sea Level PressureIn,VisibilityMPH,Wind Direction,Wind SpeedMPH,Gust SpeedMPH,PrecipitationIn,Events,Conditions,WindDirDegrees,DateUTC
12:15 AM,30.0,23.9,78,30.38,10.0,NE,5.8,-,N/A,,Clear,50,2013-03-02 07:15:00
12:35 AM,30.7,24.4,77,30.39,10.0,ENE,5.8,-,N/A,,Clear,70,2013-03-02 07:35:00
12:55 AM,30.9,23.9,75,30.39,10.0,NE,3.5,-,N/A,,Clear,50,2013-03-02 07:55:00
1:15 AM,30.0,23.9,78,30.39,10.0,NNW,3.5,-,N/A,,Clear,340,2013-03-02 08:15:00
1:35 AM,27.9,23.0,82,30.39,10.0,Calm,Calm,-,N/A,,Clear,0,2013-03-02 08:35:00
1:55 AM,31.1,23.9,75,30.39,10.0,Calm,Calm,-,N/A,,Clear,0,2013-03-02 08:55:00
2:15 AM,28.6,22.8,79,30.39,10.0,ENE,5.8,-,N/A,,Clear,70,2013-03-02 09:15:00
2:35 AM,29.3,22.1,75,30.38,10.0,Calm,Calm,-,N/A,,Clear,0,2013-03-02 09:35:00
2:55 AM,29.1,21.6,73,30.39,10.0,Calm,Calm,-,N/A,,Clear,0,2013-03-02 09:55:00
3:15 AM,28.2,21.2,75,30.38,10.0,Calm,Calm,-,N/A,,Clear,0,2013-03-02 10:15:00
3:35 AM,25.7,20.8,82,30.39,10.0,NW,4.6,-,N/A,,Clear,320,2013-03-02 10:35:00
4:15 AM,22.6,19.4,87,30.40,10.0,NNW,4.6,-,N/A,,Clear,330,2013-03-02 11:15:00
5:15 AM,21.0,18.9,91,30.40,10.0,NNW,4.6,-,N/A,,Clear,340,2013-03-02 12:15:00
5:35 AM,20.5,18.3,91,30.41,10.0,NE,4.6,-,N/A,,Clear,40,2013-03-02 12:35:00
5:55 AM,20.7,18.0,89,30.41,10.0,NNE,5.8,-,N/A,,Clear,20,2013-03-02 12:55:00
6:15 AM,21.0,18.5,90,30.41,10.0,North,4.6,-,N/A,,Clear,10,2013-03-02 13:15:00
6:35 AM,21.0,18.1,89,30.41,10.0,NNW,3.5,-,N/A,,Clear,330,2013-03-02 13:35:00
6:55 AM,20.3,17.6,89,30.41,10.0,NNW,3.5,-,N/A,,Clear,340,2013-03-02 13:55:00
7:15 AM,23.2,20.5,89,30.42,10.0,Calm,Calm,-,N/A,,Clear,0,2013-03-02 14:15:00
7:35 AM,26.2,23.0,88,30.43,10.0,Calm,Calm,-,N/A,,Clear,0,2013-03-02 14:35:00
7:55 AM,28.6,23.5,81,30.43,10.0,North,3.5,-,N/A,,Clear,360,2013-03-02 14:55:00
8:15 AM,32.0,24.8,75,30.43,10.0,Calm,Calm,-,N/A,,Clear,0,2013-03-02 15:15:00
8:35 AM,33.6,25.0,71,30.43,10.0,Calm,Calm,-,N/A,,Clear,0,2013-03-02 15:35:00
8:55 AM,37.6,25.3,61,30.43,10.0,Calm,Calm,-,N/A,,Clear,0,2013-03-02 15:55:00
9:15 AM,39.6,24.8,56,30.43,10.0,NNE,3.5,-,N/A,,Clear,30,2013-03-02 16:15:00
9:35 AM,41.9,24.1,49,30.43,10.0,NE,4.6,-,N/A,,Clear,40,2013-03-02 16:35:00
9:55 AM,44.1,23.9,45,30.43,10.0,Calm,Calm,-,N/A,,Clear,0,2013-03-02 16:55:00
10:15 AM,45.7,23.5,42,30.41,10.0,NE,5.8,-,N/A,,Clear,50,2013-03-02 17:15:00
10:35 AM,47.3,22.8,38,30.41,10.0,NNE,5.8,-,N/A,,Clear,30,2013-03-02 17:35:00
10:55 AM,48.6,23.0,37,30.41,10.0,North,5.8,-,N/A,,Clear,360,2013-03-02 17:55:00
11:15 AM,49.8,23.4,36,30.40,10.0,North,4.6,-,N/A,,Clear,360,2013-03-02 18:15:00
11:35 AM,52.0,24.3,34,30.39,10.0,NNE,5.8,-,N/A,,Clear,20,2013-03-02 18:35:00
11:55 AM,53.1,24.6,33,30.38,10.0,ENE,3.5,-,N/A,,Clear,70,2013-03-02 18:55:00
12:15 PM,54.5,26.1,33,30.37,10.0,SSE,9.2,-,N/A,,Clear,160,2013-03-02 19:15:00
12:35 PM,53.8,25.5,34,30.35,10.0,SE,5.8,-,N/A,,Clear,130,2013-03-02 19:35:00
12:55 PM,55.0,25.0,31,30.34,10.0,SSE,4.6,-,N/A,,Clear,160,2013-03-02 19:55:00
1:15 PM,57.0,27.0,32,30.34,10.0,SE,6.9,-,N/A,,Clear,140,2013-03-02 20:15:00
1:35 PM,57.2,27.5,32,30.33,10.0,SE,9.2,-,N/A,,Clear,140,2013-03-02 20:35:00
1:55 PM,57.6,26.2,30,30.32,10.0,South,5.8,-,N/A,,Clear,170,2013-03-02 20:55:00
2:15 PM,58.5,27.0,30,30.32,10.0,South,6.9,-,N/A,,Clear,170,2013-03-02 21:15:00
2:35 PM,59.2,27.0,29,30.31,10.0,South,5.8,-,N/A,,Clear,170,2013-03-02 21:35:00
2:55 PM,59.2,26.4,29,30.31,10.0,South,3.5,-,N/A,,Clear,170,2013-03-02 21:55:00
3:15 PM,59.9,26.8,28,30.29,10.0,South,4.6,-,N/A,,Clear,170,2013-03-02 22:15:00
3:35 PM,60.3,26.8,28,30.29,10.0,SE,5.8,-,N/A,,Clear,140,2013-03-02 22:35:00
3:55 PM,59.9,25.9,27,30.29,10.0,SE,4.6,-,N/A,,Clear,130,2013-03-02 22:55:00
4:15 PM,60.3,26.6,28,30.28,10.0,East,5.8,-,N/A,,Clear,80,2013-03-02 23:15:00
4:35 PM,60.4,24.8,26,30.28,10.0,Calm,Calm,-,N/A,,Clear,0,2013-03-02 23:35:00
4:55 PM,60.3,24.6,26,30.27,10.0,Calm,Calm,-,N/A,,Clear,0,2013-03-02 23:55:00
5:15 PM,60.1,19.6,21,30.27,10.0,WNW,6.9,-,N/A,,Clear,290,2013-03-03 00:15:00
5:35 PM,57.6,21.0,24,30.27,10.0,West,9.2,-,N/A,,Clear,270,2013-03-03 00:35:00
5:55 PM,54.1,22.1,29,30.27,10.0,WSW,9.2,-,N/A,,Clear,250,2013-03-03 00:55:00
6:15 PM,51.4,22.1,32,30.26,10.0,West,10.4,-,N/A,,Clear,260,2013-03-03 01:15:00
6:35 PM,50.2,21.9,33,30.26,10.0,West,9.2,-,N/A,,Clear,260,2013-03-03 01:35:00
6:55 PM,43.7,26.1,50,30.26,10.0,South,6.9,-,N/A,,Clear,170,2013-03-03 01:55:00
7:15 PM,48.6,21.2,34,30.26,10.0,SSW,5.8,-,N/A,,Clear,200,2013-03-03 02:15:00
7:35 PM,46.4,21.9,38,30.26,10.0,SW,6.9,-,N/A,,Clear,220,2013-03-03 02:35:00
7:55 PM,42.4,23.7,48,30.26,10.0,SSW,8.1,-,N/A,,Clear,210,2013-03-03 02:55:00
8:15 PM,39.7,24.6,55,30.26,10.0,SW,9.2,-,N/A,,Clear,230,2013-03-03 03:15:00
8:35 PM,39.7,24.6,55,30.27,10.0,WSW,10.4,-,N/A,,Clear,250,2013-03-03 03:35:00
8:55 PM,40.1,24.3,53,30.27,10.0,WSW,6.9,-,N/A,,Clear,240,2013-03-03 03:55:00
9:15 PM,42.6,22.5,45,30.28,10.0,WSW,5.8,-,N/A,,Clear,240,2013-03-03 04:15:00
9:35 PM,43.5,22.3,43,30.28,10.0,Calm,Calm,-,N/A,,Clear,0,2013-03-03 04:35:00
9:55 PM,45.9,20.3,36,30.28,10.0,NW,3.5,-,N/A,,Clear,310,2013-03-03 04:55:00
10:15 PM,42.4,21.7,44,30.26,10.0,WNW,5.8,-,N/A,,Clear,300,2013-03-03 05:15:00
10:35 PM,41.4,21.6,45,30.26,10.0,WNW,9.2,-,N/A,,Clear,290,2013-03-03 05:35:00
10:55 PM,38.5,21.9,51,30.25,10.0,WNW,6.9,-,N/A,,Clear,300,2013-03-03 05:55:00
11:15 PM,36.7,23.0,58,30.25,10.0,WNW,8.1,-,N/A,,Clear,300,2013-03-03 06:15:00
11:35 PM,36.9,22.8,57,30.25,10.0,North,3.5,-,N/A,,Clear,10,2013-03-03 06:35:00
11:55 PM,34.7,23.4,63,30.23,10.0,ENE,3.5,-,N/A,,Clear,60,2013-03-03 06:55:00